TimeCST,TemperatureF,Dew PointF,Humidity,Sea Level PressureIn,VisibilityMPH,Wind Direction,Wind SpeedMPH,Gust SpeedMPH,PrecipitationIn,Events,Conditions,WindDirDegrees,DateUTC
12:06 AM,64.4,62.6,94,30.02,9.0,SE,4.6,-,N/A,,Overcast,140,2013-01-13 06:06:00
12:36 AM,64.4,62.6,94,30.01,9.0,SE,5.8,-,N/A,,Overcast,140,2013-01-13 06:36:00
12:56 AM,64.9,63.0,93,30.00,10.0,SSE,5.8,-,N/A,,Overcast,150,2013-01-13 06:56:00
1:18 AM,64.4,62.6,94,30.01,10.0,SE,4.6,-,N/A,,Overcast,140,2013-01-13 07:18:00
1:56 AM,64.9,63.0,93,29.98,9.0,SE,6.9,-,N/A,,Overcast,140,2013-01-13 07:56:00
2:56 AM,66.0,64.0,93,29.98,10.0,SSE,6.9,-,N/A,,Overcast,160,2013-01-13 08:56:00
3:06 AM,66.2,64.4,94,29.99,10.0,SSE,8.1,-,N/A,,Overcast,150,2013-01-13 09:06:00
3:09 AM,66.2,64.4,94,29.98,10.0,SSE,5.8,-,N/A,,Overcast,150,2013-01-13 09:09:00
3:56 AM,66.0,64.0,93,29.97,10.0,South,6.9,-,N/A,,Overcast,170,2013-01-13 09:56:00
4:56 AM,66.9,64.0,90,29.98,10.0,SSE,5.8,-,N/A,,Overcast,150,2013-01-13 10:56:00
5:36 AM,66.2,64.4,94,29.99,10.0,SSE,6.9,-,N/A,,Overcast,150,2013-01-13 11:36:00
5:56 AM,66.9,64.0,90,29.99,10.0,SSE,4.6,-,N/A,,Overcast,160,2013-01-13 11:56:00
6:25 AM,66.2,64.4,94,30.01,10.0,SSE,6.9,-,N/A,,Overcast,160,2013-01-13 12:25:00
6:46 AM,66.2,64.4,94,29.99,10.0,SSE,9.2,-,N/A,,Overcast,150,2013-01-13 12:46:00
6:53 AM,66.2,64.4,94,30.00,10.0,SSE,8.1,-,N/A,,Overcast,150,2013-01-13 12:53:00
6:56 AM,66.9,64.0,90,29.99,10.0,SSE,6.9,-,N/A,,Overcast,150,2013-01-13 12:56:00
7:04 AM,66.2,64.4,94,29.99,10.0,SSE,8.1,-,N/A,,Overcast,150,2013-01-13 13:04:00
7:56 AM,68.0,64.0,87,30.01,10.0,SSE,5.8,-,N/A,,Overcast,150,2013-01-13 13:56:00
8:10 AM,68.0,64.4,88,30.03,10.0,SSE,6.9,-,N/A,,Overcast,160,2013-01-13 14:10:00
8:56 AM,69.1,64.0,84,30.02,10.0,South,10.4,-,N/A,,Overcast,170,2013-01-13 14:56:00
9:43 AM,71.6,64.4,78,30.03,10.0,SE,11.5,17.3,N/A,,Overcast,140,2013-01-13 15:43:00
9:56 AM,71.1,64.0,78,30.02,10.0,SSE,8.1,-,N/A,,Overcast,160,2013-01-13 15:56:00
10:56 AM,71.1,64.9,81,30.02,10.0,South,6.9,-,0.00,Rain,Light Rain,170,2013-01-13 16:56:00
11:56 AM,73.0,64.9,76,29.99,10.0,South,6.9,-,0.00,,Overcast,170,2013-01-13 17:56:00
12:17 PM,75.2,66.2,73,29.99,10.0,South,6.9,-,N/A,,Mostly Cloudy,180,2013-01-13 18:17:00
12:56 PM,75.9,64.0,67,29.97,10.0,South,12.7,19.6,N/A,,Mostly Cloudy,170,2013-01-13 18:56:00
1:56 PM,75.0,64.0,69,29.97,10.0,South,11.5,-,N/A,,Overcast,170,2013-01-13 19:56:00
2:56 PM,75.0,64.0,69,29.96,10.0,SSE,10.4,18.4,N/A,,Overcast,160,2013-01-13 20:56:00
3:56 PM,73.0,64.9,76,29.97,10.0,SSE,8.1,-,0.00,,Overcast,160,2013-01-13 21:56:00
4:56 PM,71.1,66.0,84,29.99,10.0,South,6.9,-,0.00,,Overcast,180,2013-01-13 22:56:00
5:45 PM,69.8,66.2,88,30.02,10.0,South,5.8,-,0.00,,Overcast,170,2013-01-13 23:45:00
5:54 PM,69.8,66.2,88,30.02,10.0,South,6.9,-,0.00,,Overcast,170,2013-01-13 23:54:00
5:56 PM,70.0,66.9,90,30.01,10.0,South,5.8,-,0.00,,Overcast,180,2013-01-13 23:56:00
6:07 PM,69.8,66.2,88,30.02,10.0,South,6.9,-,N/A,,Overcast,170,2013-01-14 00:07:00
6:41 PM,69.8,66.2,88,30.02,2.5,South,8.1,-,0.07,Rain,Light Rain,180,2013-01-14 00:41:00
6:56 PM,69.1,66.9,93,30.02,2.5,South,3.5,-,0.16,Rain,Heavy Rain,170,2013-01-14 00:56:00
7:13 PM,69.8,66.2,88,30.01,3.0,SSE,5.8,-,0.11,Rain,Rain,150,2013-01-14 01:13:00
7:51 PM,69.8,66.2,88,30.01,9.0,South,8.1,-,0.13,,Overcast,170,2013-01-14 01:51:00
7:56 PM,69.1,66.9,93,30.00,9.0,SSE,9.2,-,0.13,,Overcast,160,2013-01-14 01:56:00
8:56 PM,69.1,66.9,93,30.01,10.0,South,6.9,-,N/A,,Overcast,180,2013-01-14 02:56:00
9:56 PM,69.1,66.9,93,30.02,9.0,South,8.1,-,0.00,,Overcast,170,2013-01-14 03:56:00
10:56 PM,69.1,66.9,93,30.01,8.0,SSE,3.5,-,0.00,,Overcast,150,2013-01-14 04:56:00
11:56 PM,69.1,66.9,93,29.99,7.0,SE,6.9,-,0.03,Rain,Light Rain,130,2013-01-14 05:56:00